FENGYUN 1C DEB, 29985

Orbit data source: Space-Track

FENGYUN 1C DEB, 29985 is space debris in SSO originally from a launch on Mon, 10 May 1999 UTC launched from the Taiyaun Space Center, China (TSC). Fengyun 1C debris stems from the Chinese weather satellite Fengyun-1C, which was intentionally destroyed by a Chinese anti-satellite missile in 2007. This event dramatically increased the amount of space debris, with thousands of trackable fragments posing hazards to satellites and human spaceflight. The Fengyun 1C debris cloud has become a focal point in discussions about space sustainability and the need for international regulations to prevent the creation of new debris.

Loading next visibility...
Identifier
29985, 1999-025LK
Orbit
SSO
Country
Flag of CNCN / PRC
Related business
Manufacturer
Unknown
Mission
Spacecraft
Bus & Motor
Unknown
Mass
Unknown
Launch date (UTC)
1999-05-10 (27 years ago)
Launch vehicle
Unknown
Launch site
Taiyaun Space Center, China (TSC)
Object type
Payload
Rocket body
Debris
Shape & HBR
Unknown shape, 0.2 m
Radar Cross Section
Medium (>0.1 m² and <1 m²)

Expand to show TLE details & history
Last TLE update: 10 hours ago

TLE from 10 hours ago
0 FENGYUN 1C DEB
1 29985U 99025LK  26164.78345718  .00000104  00000-0  82123-4 0  9995
2 29985  98.7003 179.0608 0029558  53.2640 120.5945 14.10359958999280
Epoch: 2026-06-13T18:48Z
TLE epoch observation values (Epoch: 2026-06-13T18:48:10.700Z)
Latitude
5.70234°
Longitude
175.79355°
Altitude
871.418 km
Speed
7.411 km/s
True Right ascension
23h 59m 43s
True Declination
5° 40' 08"
Sunlit
Object was in daylight at epoch
Visualization orbit readout
Latitude
Unknown
Longitude
Unknown
Altitude
Unknown
Speed
Unknown
Apparent Right ascension
Unknown
Apparent Declination
Unknown
Sunlit
N/A
Visualization observer readout
Local Sidereal Time
15:38:30
Azimuth
Unknown
Elevation
Unknown
Doppler factor
Unknown
Orbital elements
Apogee altitude
876.692 km
Perigee altitude
833.931 km
Semi-major axis
7,233.448 km
Eccentricity
0.00296
Inclination
98.7003°
RAAN
179.0608°
Arg. of periapsis
53.264°
True anomaly
120.88551°
Mean anomaly
120.5945°
Eccentric anomaly
120.74006°
Mean motion
3.52797 °/min
Orbital period
102.04 mins
BSTAR
0.000082123
Loading maneuver chart data...
Computing Atmospheric mass density...

Documentation

Showing up to 5 results
|